This is the latest recevied weather packets stored in our database for station/object WX7FGZ-6. If no packets are shown the sender has not sent any weather packets the latest 10 day(s).
| Time | Temp. | Humidity | Pressure | Rain* | Wind** | Luminosity | Snow |
|---|---|---|---|---|---|---|---|
| 1777937960 | 2.78° C | 63% | 1016.2 hPa | 0 mm | - | - | - |
| 1777937660 | 2.22° C | 63% | 1016.2 hPa | 0 mm | - | - | - |
| 1777937360 | 2.22° C | 61% | 1016.4 hPa | 0 mm | - | - | - |
| 1777937060 | 2.78° C | 61% | 1016.2 hPa | 0 mm | - | - | - |
| 1777936760 | 2.78° C | 62% | 1016.2 hPa | 0 mm | - | - | - |
| 1777936460 | 3.33° C | 60% | 1015.8 hPa | 0 mm | - | - | - |
| 1777936160 | 3.33° C | 60% | 1016.2 hPa | 0 mm | - | - | - |
| 1777935860 | 2.78° C | 58% | 1016.2 hPa | 0 mm | - | - | - |
| 1777935560 | 2.78° C | 58% | 1015.9 hPa | 0 mm | - | - | - |
| 1777935260 | 2.78° C | 59% | 1016.2 hPa | 0 mm | - | - | - |
| 1777934960 | 2.78° C | 57% | 1016.1 hPa | 0 mm | - | - | - |
| 1777934500 | 2.78° C | 55% | 1016.2 hPa | 0 mm | - | - | - |
| 1777934201 | 2.78° C | 53% | 1016.2 hPa | 0 mm | - | - | - |
| 1777933901 | 3.33° C | 54% | 1016.2 hPa | 0 mm | - | - | - |
| 1777933867 | 3.33° C | 52% | 1016.9 hPa | 0 mm | - | - | - |
| 1777933601 | 3.33° C | 52% | 1016.9 hPa | 0 mm | - | - | - |
| 1777933301 | 3.33° C | 53% | 1017.1 hPa | 0 mm | - | - | - |
| 1777933001 | 3.33° C | 53% | 1016.9 hPa | 0 mm | - | - | - |
| 1777932701 | 3.33° C | 53% | 1017.2 hPa | 0 mm | - | - | - |
| 1777932401 | 3.33° C | 49% | 1017.1 hPa | 0 mm | - | - | - |
| 1777932101 | 4.44° C | 43% | 1017 hPa | 0 mm | - | - | - |
| 1777931833 | 4.44° C | 54% | 1017 hPa | 0 mm | - | - | - |
| 1777931801 | 4.44° C | 53% | 1017.2 hPa | 0 mm | - | - | - |
| 1777931501 | 4.44° C | 54% | 1017 hPa | 0 mm | - | - | - |
| 1777931201 | 3.89° C | 51% | 1017 hPa | 0 mm | - | - | - |
* Rain latest hour (hover to see other rain measurements)
** Current wind speed in m/s (hover to see current wind gust speed)